| time (UTC) | temp C | wind direction | speed KPH | gust KPH | rain 1hr cm | rain 24hr cm | rain mn cm | humidity % | barometer mb |
| 20260506084502 | 13 | 102 | 1.6 | 3.2 | 0.00 | 0.38 | 0.00 | 57 | 1009.1 |
| 20260506083124 | 13 | 117 | 0.0 | 3.2 | 0.00 | 0.38 | 0.00 | 57 | 1009.1 |
| 20260506081604 | 13 | 101 | 0.0 | 3.2 | 0.00 | 0.38 | 0.00 | 58 | 1009.2 |
| 20260506080104 | 13 | 116 | 0.0 | 0.0 | 0.00 | 0.38 | 0.00 | 58 | 1009.3 |
| 20260506073053 | 13 | 91 | 0.0 | 1.6 | 0.00 | 0.53 | 0.00 | 54 | 1009.2 |
| 20260506071554 | 14 | 105 | 0.0 | 3.2 | 0.00 | 0.53 | 0.00 | 52 | 1009.2 |
| 20260506061546 | 15 | 316 | 3.2 | 8.0 | 0.00 | 0.69 | 0.53 | 49 | 1008.7 |
| 20260506044542 | 17 | 333 | 6.4 | 14.5 | 0.00 | 0.81 | 0.53 | 50 | 1008.1 |
| 20260506043042 | 17 | 317 | 8.0 | 20.9 | 0.00 | 0.81 | 0.53 | 48 | 1008.0 |
| 20260506041540 | 17 | 304 | 9.7 | 19.3 | 0.00 | 0.81 | 0.53 | 46 | 1007.9 |
| 20260506040041 | 17 | 280 | 8.0 | 16.1 | 0.00 | 0.81 | 0.53 | 43 | 1007.7 |
| 20260506034541 | 17 | 290 | 4.8 | 9.7 | 0.00 | 0.89 | 0.53 | 42 | 1007.5 |
| 20260506033039 | 18 | 307 | 4.8 | 11.3 | 0.00 | 0.89 | 0.53 | 41 | 1007.3 |
| 20260506031540 | 18 | 315 | 3.2 | 9.7 | 0.00 | 0.89 | 0.53 | 40 | 1007.1 |
| 20260506030038 | 18 | 311 | 4.8 | 12.9 | 0.00 | 0.89 | 0.53 | 38 | 1006.9 |
| 20260506024542 | 18 | 315 | 6.4 | 16.1 | 0.00 | 1.07 | 0.53 | 36 | 1006.7 |
| 20260506023036 | 18 | 321 | 8.0 | 14.5 | 0.00 | 1.07 | 0.53 | 35 | 1006.5 |
| 20260506021535 | 19 | 293 | 6.4 | 14.5 | 0.00 | 1.07 | 0.53 | 34 | 1006.1 |
| 20260506020034 | 19 | 322 | 9.7 | 22.5 | 0.00 | 1.07 | 0.53 | 35 | 1005.9 |
| 20260506014535 | 20 | 332 | 12.9 | 25.7 | 0.00 | 1.19 | 0.53 | 34 | 1005.7 |
| 20260506013034 | 21 | 261 | 12.9 | 29.0 | 0.00 | 1.19 | 0.53 | 33 | 1005.5 |
| 20260506011559 | 21 | 308 | 16.1 | 27.4 | 0.00 | 1.19 | 0.53 | 31 | 1005.4 |
| 20260506010032 | 22 | 269 | 8.0 | 17.7 | 0.00 | 1.19 | 0.53 | 29 | 1005.2 |
| 20260506004537 | 22 | 322 | 8.0 | 19.3 | 0.00 | 1.27 | 0.53 | 29 | 1005.0 |
| 20260506003031 | 22 | 281 | 8.0 | 17.7 | 0.00 | 1.27 | 0.53 | 28 | 1005.1 |
| 20260506001529 | 23 | 257 | 4.8 | 17.7 | 0.00 | 1.27 | 0.53 | 31 | 1004.9 |
| 20260506000045 | 22 | 274 | 6.4 | 14.5 | 0.00 | 1.27 | 0.53 | 31 | 1004.9 |
| 20260505234539 | 22 | 298 | 4.8 | 22.5 | 0.00 | 1.35 | 0.53 | 31 | 1004.8 |
| 20260505233028 | 22 | 311 | 4.8 | 14.5 | 0.00 | 1.35 | 0.53 | 31 | 1004.8 |
| 20260505231533 | 23 | 323 | 6.4 | 17.7 | 0.00 | 1.35 | 0.53 | 29 | 1004.8 |
| 20260505230051 | 22 | 264 | 4.8 | 17.7 | 0.00 | 1.35 | 0.53 | 30 | 1004.7 |
| 20260505224538 | 22 | 103 | 4.8 | 14.5 | 0.00 | 1.35 | 0.53 | 29 | 1005.0 |
| 20260505223028 | 22 | 310 | 6.4 | 19.3 | 0.00 | 1.35 | 0.53 | 32 | 1005.1 |
| 20260505221528 | 23 | 302 | 8.0 | 16.1 | 0.00 | 1.35 | 0.53 | 33 | 1005.2 |
| 20260505220027 | 22 | 300 | 16.1 | 29.0 | 0.00 | 1.35 | 0.53 | 31 | 1005.2 |
| 20260505214527 | 23 | 298 | 16.1 | 24.1 | 0.00 | 1.35 | 0.53 | 32 | 1005.4 |
| 20260505213025 | 22 | 307 | 14.5 | 32.2 | 0.00 | 1.35 | 0.53 | 35 | 1005.4 |
| 20260505211527 | 22 | 249 | 9.7 | 22.5 | 0.00 | 1.35 | 0.53 | 37 | 1005.7 |
| 20260505210018 | 22 | 325 | 14.5 | 29.0 | 0.00 | 1.35 | 0.53 | 37 | 1005.7 |
| 20260505204515 | 21 | 316 | 9.7 | 27.4 | 0.00 | 1.35 | 0.53 | 40 | 1005.6 |
| 20260505203014 | 21 | 315 | 11.3 | 19.3 | 0.00 | 1.35 | 0.53 | 42 | 1005.8 |
| 20260505201511 | 20 | 316 | 4.8 | 12.9 | 0.00 | 1.35 | 0.53 | 52 | 1006.0 |
| 20260505200011 | 20 | 295 | 3.2 | 16.1 | 0.00 | 1.35 | 0.53 | 52 | 1006.1 |
| 20260505194509 | 21 | 299 | 9.7 | 16.1 | 0.00 | 1.35 | 0.53 | 50 | 1005.9 |
| 20260505193007 | 21 | 259 | 3.2 | 12.9 | 0.00 | 1.35 | 0.53 | 54 | 1006.2 |
| 20260505191505 | 20 | 314 | 6.4 | 12.9 | 0.00 | 1.35 | 0.53 | 55 | 1006.4 |
| 20260505190004 | 20 | 328 | 6.4 | 11.3 | 0.00 | 1.35 | 0.53 | 57 | 1006.6 |
| 20260505184505 | 20 | 340 | 3.2 | 8.0 | 0.00 | 1.35 | 0.53 | 59 | 1006.8 |
| 20260505183100 | 19 | 324 | 4.8 | 11.3 | 0.00 | 1.35 | 0.53 | 59 | 1006.8 |
| 20260505181559 | 19 | 262 | 1.6 | 6.4 | 0.00 | 1.35 | 0.53 | 58 | 1007.0 |
| 20260505180100 | 19 | 311 | 0.0 | 6.4 | 0.00 | 1.35 | 0.53 | 59 | 1007.2 |
| 20260505174555 | 18 | 316 | 3.2 | 14.5 | 0.00 | 1.35 | 0.53 | 61 | 1007.2 |
| 20260505173111 | 18 | 118 | 0.0 | 4.8 | 0.00 | 1.35 | 0.53 | 62 | 1007.2 |
| 20260505171605 | 17 | 246 | 0.0 | 4.8 | 0.00 | 1.35 | 0.53 | 65 | 1007.3 |
| 20260505170045 | 17 | 326 | 3.2 | 6.4 | 0.00 | 1.35 | 0.53 | 68 | 1007.1 |
| 20260505164543 | 17 | 271 | 1.6 | 6.4 | 0.00 | 1.35 | 0.53 | 73 | 1007.1 |
| 20260505163039 | 16 | 300 | 1.6 | 3.2 | 0.00 | 1.35 | 0.53 | 77 | 1007.3 |
| 20260505161539 | 16 | 326 | 3.2 | 6.4 | 0.00 | 1.35 | 0.53 | 76 | 1007.3 |
| 20260505153033 | 15 | 300 | 0.0 | 3.2 | 0.00 | 1.35 | 0.53 | 87 | 1006.9 |
| 20260505151534 | 15 | 224 | 0.0 | 0.0 | 0.00 | 1.35 | 0.53 | 89 | 1006.8 |
| 20260505124520 | 13 | 118 | 0.0 | 1.6 | 0.05 | 1.35 | 0.53 | 92 | 1005.9 |
| 20260505123017 | 13 | 118 | 0.0 | 0.0 | 0.05 | 1.35 | 0.53 | 91 | 1005.6 |
| 20260505121529 | 13 | 118 | 0.0 | 0.0 | 0.03 | 1.32 | 0.51 | 91 | 1005.2 |
| 20260505120015 | 13 | 118 | 0.0 | 1.6 | 0.03 | 1.30 | 0.48 | 90 | 1005.1 |
| 20260505114515 | 13 | 118 | 0.0 | 4.8 | 0.03 | 1.30 | 0.48 | 88 | 1005.2 |
| 20260505113013 | 13 | 321 | 1.6 | 6.4 | 0.05 | 1.30 | 0.48 | 88 | 1005.5 |
| 20260505111511 | 13 | 321 | 1.6 | 6.4 | 0.08 | 1.30 | 0.48 | 89 | 1005.1 |
| 20260505101504 | 13 | 325 | 3.2 | 4.8 | 0.10 | 1.22 | 0.41 | 92 | 1006.5 |
| 20260505100008 | 13 | 103 | 0.0 | 3.2 | 0.13 | 1.22 | 0.41 | 91 | 1006.9 |
| 20260505094500 | 13 | 103 | 0.0 | 1.6 | 0.15 | 1.22 | 0.41 | 91 | 1006.3 |
| 20260505093058 | 13 | 106 | 0.0 | 3.2 | 0.13 | 1.17 | 0.36 | 92 | 1007.5 |
| 20260505091617 | 13 | 103 | 0.0 | 6.4 | 0.10 | 1.12 | 0.30 | 92 | 1007.3 |
| 20260505090101 | 13 | 113 | 1.6 | 8.0 | 0.13 | 1.09 | 0.28 | 92 | 1007.7 |